Regional Weather Roundup
Issued by NWS

Home | Current Version | Previous Version | Graphics & Text | Print | Product List | Glossary On
Versions: 1 2 3 4 5 6 7 8 9 10 11 12 13 14 15 16 17 18 19 20 21 22 23 24 25 26 27 28 29 30 31 32 33 34 35 36 37 38 39 40 41 42 43 44 45 46 47 48 49 50
000
ASUS43 KFSD 310510
RWRSD

WEATHER ROUNDUP FOR SOUTH DAKOTA
NATIONAL WEATHER SERVICE SIOUX FALLS SD
1200 AM CDT SUN AUG 31 2014

NOTE: "FAIR" INDICATES FEW OR NO CLOUDS BELOW 12,000 FEET WITH NO
SIGNIFICANT WEATHER AND/OR OBSTRUCTIONS TO VISIBILITY.


SDZ001>005-009-010-012>017-310600-
NORTHWEST AND NORTH CENTRAL SOUTH DAKOTA

CITY           SKY/WX    TMP DP  RH WIND       PRES   REMARKS
BUFFALO          N/A     61  59  93 CALM      29.68F
FAITH            N/A     63  60  90 NW9       29.69R
MOBRIDGE       LGT RAIN  64  63  96 SE12      29.67F
$$

SDZ012>016-024>037-041>051-057-063-072>074-310600-
SOUTHWEST AND SOUTH CENTRAL SOUTH DAKOTA

CITY           SKY/WX    TMP DP  RH WIND       PRES   REMARKS
RAPID CTY ARPT CLOUDY    67  53  61 N14       29.78F
PIERRE         CLOUDY    69  64  84 SE10      29.66R
CUSTER         LGT RAIN  59  49  69 VRB3      29.92R
ELLSWORTH AFB  LGT RAIN  65  56  72 N6        29.79
PHILIP         CLOUDY    69  57  65 NW25G36   29.70R
PINE RIDGE     CLOUDY    69  54  58 S7        29.80R
WINNER         FAIR      74  64  71 W14G28    29.75R
$$

SDZ004>011-016>023-039-040-310600-
NORTHEAST SOUTH DAKOTA

CITY           SKY/WX    TMP DP  RH WIND       PRES   REMARKS
ABERDEEN       PTCLDY    60  59  96 SE9       29.75F
WATERTOWN      CLEAR     59  57  93 SE7       29.82R
SISSETON         N/A     58  58 100 S5        29.81R
$$

SDZ017-020-022-023-036>040-048>070-310600-
SOUTHEAST SOUTH DAKOTA

CITY           SKY/WX    TMP DP  RH WIND       PRES   REMARKS
SIOUX FALLS    CLEAR     66  60  81 SE8       29.83S
HURON          CLEAR     64  59  83 SE10      29.74F
CHAMBERLAIN    PTCLDY    66  63  91 SE12      29.71F
MITCHELL       CLEAR     66  62  87 SE14      29.77F
YANKTON        CLEAR     64  61  88 E7        29.81S
$$

ABBREVIATIONS USED IN REMARKS
   TC - TEMPERATURE IN CELSIUS
  WCI - WIND CHILL INDEX
   HX - HEAT INDEX
  VSB - VISIBILITY



USA.gov is the U.S. government's official web portal to all federal, state and local government web resources and services.